Bartow, FL

4:40 AM EDT on September 25, 2017 (GMT -0400)
Bartow Municipal

Weather History for KBOW - May, 2013

Change the Weather History Date:

Thursday, May 9, 2013

  Actual Average Record
Temperature  
Mean Temperature 70 °F -  
Max Temperature 84 °F 87 °F 96 °F (1975)
Min Temperature 55 °F 65 °F 52 °F (1960)
Cooling Degree Days 4    
Growing Degree Days 20 (Base 50)    
Moisture  
Dew Point 56 °F    
Average Humidity 57    
Maximum Humidity 100    
Minimum Humidity 32    
Precipitation  
Precipitation 0.00 in - - ()
Sea Level Pressure  
Sea Level Pressure 30.14 in    
Wind  
Wind Speed 2 mph (NW)    
Max Wind Speed 8 mph    
Max Gust Speed -    
Visibility 9 miles    
Events      
Averages and records for this station are not official NWS values.
T = Trace of Precipitation, MM = Missing Value Source: NWS Daily Summary

Daily Weather History Graph

Daily Weather History Graph

Search for Another Location

Airport or City:

Trip Planner

Search our weather history database for the weather conditions in past years. The results will help you decide how hot, cold, wet, or windy it might be!

Date:

Astronomy

May. 09, 2013 Rise Set
Actual Time 6:41 AM EDT 8:06 PM EDT
Civil Twilight 6:15 AM EDT 8:31 PM EDT
Nautical Twilight 5:45 AM EDT 9:01 PM EDT
Astronomical Twilight 5:14 AM EDT 9:33 PM EDT
Moon 6:22 AM EDT (5/9) 8:00 PM EDT (5/9)
Length of Visible Light 14h 15m
Length of Day
13h 25m
Waning Crescent, 0% of the Moon is Illuminated
May 9
Waning Crescent
May 9
New
May 18
First Quarter
May 25
Full
May 31
Last Quarter

Hourly Weather History & Observations

Time (EDT) Temp. Heat Index Dew Point Humidity Pressure Visibility Wind Dir Wind Speed Gust Speed Precip Events Conditions
12:35 AM 66.2 °F - 60.8 °F 83% 30.16 in 10.0 mi Calm Calm - N/A   Clear
2:15 AM 62.6 °F - 60.8 °F 94% 30.13 in 9.0 mi Calm Calm - N/A   Clear
3:35 AM 57.2 °F - 57.2 °F 100% 30.11 in 8.0 mi Calm Calm - N/A   Clear
4:15 AM 57.2 °F - 57.2 °F 100% 30.11 in 8.0 mi Calm Calm - N/A   Clear
5:55 AM 57.2 °F - 57.2 °F 100% 30.12 in 9.0 mi Calm Calm - N/A   Clear
6:15 AM 55.4 °F - 55.4 °F 100% 30.12 in 9.0 mi Calm Calm - N/A   Clear
7:15 AM 57.2 °F - 57.2 °F 100% 30.14 in 8.0 mi Calm Calm - N/A   Clear
7:35 AM 55.4 °F - 55.4 °F 100% 30.15 in 9.0 mi Calm Calm - N/A   Clear
7:55 AM 59.0 °F - 59.0 °F 100% 30.16 in 9.0 mi Calm Calm - N/A   Clear
8:55 AM 69.8 °F - 62.6 °F 78% 30.17 in 6.0 mi NNW 5.8 mph - N/A   Haze
9:15 AM 69.8 °F - 60.8 °F 73% 30.18 in 5.0 mi NNW 6.9 mph - N/A   Haze
9:35 AM 71.6 °F - 60.8 °F 69% 30.18 in 7.0 mi NW 6.9 mph - N/A   Clear
9:47 AM 71.6 °F - 60.8 °F 69% 30.18 in 8.0 mi NNW 6.9 mph - N/A   Clear
10:48 AM 73.4 °F - 55.4 °F 53% 30.18 in 9.0 mi NNW 5.8 mph - N/A   Clear
10:55 AM 75.2 °F - 53.6 °F 47% 30.18 in 9.0 mi North 4.6 mph - N/A   Clear
11:35 AM 75.2 °F - 53.6 °F 47% 30.18 in 8.0 mi Calm Calm - N/A   Clear
11:48 AM 75.2 °F - 53.6 °F 47% 30.18 in 9.0 mi NNW 5.8 mph - N/A   Clear
11:55 AM 75.2 °F - 53.6 °F 47% 30.18 in 9.0 mi NNE 4.6 mph - N/A   Clear
12:35 PM 78.8 °F - 51.8 °F 39% 30.18 in 9.0 mi Calm Calm - N/A   Clear
1:15 PM 78.8 °F - 53.6 °F 42% 30.17 in 8.0 mi NNW 3.5 mph - N/A   Partly Cloudy
1:35 PM 80.6 °F 80.3 °F 53.6 °F 39% 30.16 in 8.0 mi NNW 5.8 mph - N/A   Clear
1:50 PM 80.6 °F - 51.8 °F 37% 30.16 in 10.0 mi North 5.8 mph - N/A   Clear
1:55 PM 80.6 °F - 51.8 °F 37% 30.16 in 9.0 mi North 5.8 mph - N/A   Clear
2:15 PM 80.6 °F 80.3 °F 53.6 °F 39% 30.15 in 9.0 mi West 5.8 mph - N/A   Clear
2:35 PM 80.6 °F 80.3 °F 53.6 °F 39% 30.14 in 10.0 mi SSW 5.8 mph - N/A   Clear
2:49 PM 82.4 °F - 51.8 °F 35% 30.14 in 10.0 mi North 4.6 mph - N/A   Clear
2:55 PM 82.4 °F - 51.8 °F 35% 30.14 in 8.0 mi Calm Calm - N/A   Clear
3:15 PM 84.2 °F 82.8 °F 53.6 °F 35% 30.13 in 9.0 mi West 6.9 mph - N/A   Clear
3:35 PM 82.4 °F - 50.0 °F 32% 30.12 in 9.0 mi WSW 8.1 mph - N/A   Clear
4:15 PM 82.4 °F - 51.8 °F 35% 30.12 in 9.0 mi WSW 5.8 mph - N/A   Clear
4:35 PM 84.2 °F - 51.8 °F 33% 30.11 in 9.0 mi SW 4.6 mph - N/A   Clear
4:55 PM 82.4 °F - 51.8 °F 35% 30.11 in 8.0 mi West 8.1 mph - N/A   Clear
5:15 PM 84.2 °F - 51.8 °F 33% 30.11 in 9.0 mi West 6.9 mph - N/A   Clear
5:35 PM 82.4 °F - 51.8 °F 35% 30.11 in 8.0 mi West 8.1 mph - N/A   Clear
5:55 PM 82.4 °F - 51.8 °F 35% 30.11 in 9.0 mi NW 5.8 mph - N/A   Clear
6:15 PM 82.4 °F - 51.8 °F 35% 30.10 in 8.0 mi Calm Calm - N/A   Clear
6:35 PM 82.4 °F 81.4 °F 53.6 °F 37% 30.10 in 9.0 mi Calm Calm - N/A   Clear
6:55 PM 82.4 °F 81.4 °F 53.6 °F 37% 30.10 in 9.0 mi Calm Calm - N/A   Clear
7:15 PM 82.4 °F 81.4 °F 53.6 °F 37% 30.10 in 9.0 mi North 3.5 mph - N/A   Clear
7:35 PM 82.4 °F 81.4 °F 53.6 °F 37% 30.10 in 9.0 mi NNW 3.5 mph - N/A   Clear
7:55 PM 82.4 °F 81.4 °F 53.6 °F 37% 30.10 in 8.0 mi NW 3.5 mph - N/A   Clear
8:15 PM 75.2 °F - 59.0 °F 57% 30.11 in 10.0 mi Calm Calm - N/A   Clear
8:35 PM 73.4 °F - 57.2 °F 57% 30.11 in 9.0 mi Calm Calm - N/A   Partly Cloudy
8:55 PM 71.6 °F - 57.2 °F 60% 30.11 in 9.0 mi Calm Calm - N/A   Partly Cloudy
9:15 PM 73.4 °F - 57.2 °F 57% 30.13 in 10.0 mi Calm Calm - N/A   Clear
9:35 PM 69.8 °F - 57.2 °F 64% 30.12 in 9.0 mi ENE 6.9 mph - N/A   Clear
9:55 PM 71.6 °F - 57.2 °F 60% 30.13 in 10.0 mi ENE 4.6 mph - N/A   Clear
10:15 PM 71.6 °F - 60.8 °F 69% 30.14 in 10.0 mi East 5.8 mph - N/A   Clear
10:35 PM 73.4 °F - 60.8 °F 65% 30.14 in 10.0 mi Calm Calm - N/A   Clear
10:55 PM 71.6 °F - 62.6 °F 73% 30.15 in 10.0 mi Calm Calm - N/A   Clear
11:15 PM 71.6 °F - 62.6 °F 73% 30.15 in 10.0 mi Calm Calm - N/A   Clear
11:35 PM 71.6 °F - 62.6 °F 73% 30.16 in 10.0 mi Calm Calm - N/A   Clear
11:55 PM 69.8 °F - 60.8 °F 73% 30.16 in 9.0 mi Calm Calm - N/A   Clear